Location: C�mpuri de-Sus
(45.9500°N, 22.5500°E)
Time: 01:36:57
(UTC+00:00)

Cosmos 839 Rocket - Pass Details

Date: 02 June 2022
Orbit: 968 x 2085 km, 65.9° (Epoch: 06 July)

Event Time Altitude Azimuth Distance (km) Brightness Sun altitude
Rises 21:01:44 0° 326° (NNW) 3,682 8.5 -19.0°
Reaches altitude 10° 21:04:13 10° 331° (NNW) 2,767 7.6 -19.2°
Maximum altitude 21:10:29 57° 50° (NE) 1,268 4.7 -19.6°
Enters shadow 21:15:24 21° 122° (ESE) 2,397 5.6 -19.8°
